Location: Taaricht
(32.5378°N, 5.4251°W)
Time: 15:16:43
(UTC+00:00)

ADEOS Rocket - Pass Details

Date: 09 April 2020
Orbit: 858 x 1307 km, 98.7° (Epoch: 26 May)

Event Time Altitude Azimuth Distance (km) Brightness Sun altitude
Rises 19:05:11 0° 8° (N) 3,744 6.1 -4.5°
Reaches altitude 10° 19:07:47 10° 5° (N) 2,729 5.5 -5.0°
Maximum altitude 19:13:43 62° 287° (WNW) 1,025 3.6 -6.2°
Drops below altitude 10° 19:19:12 10° 207° (SSW) 2,518 5.4 -7.3°
Sets 19:21:31 0° 204° (SSW) 3,431 6.0 -7.8°
